{"data":{"norad_id":63008,"epoch":"2026-05-25T03:11:59.807040Z","epoch_age_seconds":59960,"freshness":"FRESH","line1":"1 63008U 25032D   26145.13333110  .00156680  00000+0  12004-2 0  9996","line2":"2 63008  43.0023  94.8104 0001895 263.2275  96.8377 15.70863976 74088","mean_motion":15.70863976,"eccentricity":0.0001895,"inclination_deg":43.0023,"raan_deg":94.8104,"arg_perigee_deg":263.2275,"mean_anomaly_deg":96.8377,"bstar":0.0012004,"rev_number":7408,"period_min":91.669299315576,"perigee_km":355.1503347552,"apogee_km":357.70273433479,"semimajor_km":6734.563534545,"source":"CELESTRAK","updated_at":"2026-05-25T13:38:19.835506Z"}}